www.pogodaiklimat.ru

Погода и климат >> Архив погоды >> Россия >> Сахалинская область >> Южно-Курильск


АРХИВ ПОГОДЫ в Южно-Курильске

Время (UTC), дата Ветер
(напр.,м/с)
 
Видим.   Явления Облачность Т
(С)
Тd
(С)
f
(%)
Тe
(С)
Тes
(С)
Комфортность P
(гПа)
Po
(гПа)
Тmin
(С)
Tmax
(С)
R
(мм)
R24
(мм)
S
(см)
09 10.07 ЮЗ 4-6
{6}
20 км 4/3 600 м
[Cb cap Ac lent]
+10.9 +8.7 86 +8 +9 по сезону 1017.5 1011.9 +12.8
12 10.07 ЮЗ 2-4
{6}
4000 м дымка 10/10 600 м
[Cb cap]
+10.3 +9.0 92 +9 +9 по сезону 1018.6 1013.0
15 10.07 Ю 2-3
{4}
4000 м дымка 10/10 600 м
[Cb cap]
+10.0 +9.3 95 +8 +8 по сезону 1018.2 1012.6
18 10.07 Ю 1-3
{5}
4000 м дымка 9/9 600 м
[Cb cap]
+9.3 +8.4 94 +9 +9 по сезону 1018.2 1012.6
21 10.07 Ю 4-6
{6}
20 км в посл. час морось 10/10 300 м
[St]
+9.0 +8.4 96 +6 +6 прохладно 1018.3 1012.7 +9.0 0.0
00 11.07 ЮВ 4-6
{6}
2000 м слаб. морось 10/10 200 м
[St]
+9.2 +8.8 97 +6 +6 прохладно 1017.8 1012.2 +8.9
03 11.07 Ю 5-8
{8}
4000 м дымка 10/10 300 м
[St]
+11.5 +10.1 91 +9 +9 по сезону 1016.8 1011.2
06 11.07 Ю 5-8
{9}
10 км {морось} 10/10 600 м
[Cb cap]
+12.2 +10.5 89 +10 +10 по сезону 1015.6 1010.1
09 11.07 Ю 3-6
{8}
4000 м дымка 10/10 300 м
[St]
+11.4 +10.4 94 +9 +9 по сезону 1014.7 1009.1 +12.4 0.0
12 11.07 Ю 3-5
{7}
4000 м дымка 10/10 300 м
[St]
+11.8 +11.0 95 +10 +10 по сезону 1014.4 1008.9
15 11.07 Ю 6-7
{10}
4000 м дымка 10/10 300 м
[St]
+12.2 +11.8 97 +9 +9 по сезону 1013.1 1007.6
18 11.07 Ю 6-9
{9}
4000 м дымка 10/10 300 м
[St]
+12.3 +12.1 99 +9 +9 по сезону 1012.0 1006.5
21 11.07 Ю 6-9
{9}
4000 м дымка 10/10 300 м
[St]
+12.9 +12.6 98 +10 +10 по сезону 1011.9 1006.4 +11.4
00 12.07 Ю 7-9
{10}
20 км 10/3 300 м
[St Ac As]
+13.4 +12.6 95 +11 +12 по сезону 1011.4 1005.9
03 12.07 Ю 6-9
{11}
20 км 10/1 300 м
[St Ac As Cs]
+15.0 +12.8 87 +13 +17 по сезону 1010.8 1005.4
06 12.07 Ю 7-11
{11}
20 км 10/1 300 м
[St Ac As]
+13.8 +12.4 91 +11 +12 по сезону 1010.1 1004.6
09 12.07 Ю 5-8
{11}
4000 м дымка 10/1 300 м
[St As op]
+13.3 +12.9 97 +11 +11 по сезону 1009.9 1004.4 +15.6
12 12.07 Ю 2 4000 м дымка 10/10 300 м
[St]
+12.6 +12.6 100 +12 +12 по сезону 1010.7 1005.2
15 12.07 Ю 4-5
{6}
4000 м дымка 10/10 300 м
[St]
+12.7 +12.7 100 +11 +11 по сезону 1009.9 1004.4
18 12.07 Ю 3-5
{6}
500 м туман ?/? +12.8 +12.8 100 +11 +11 по сезону 1009.5 1004.0
21 12.07 Ю 2-2
{6}
2000 м в посл. час туман 10/10 300 м
[St]
+13.0 +13.0 100 +12 +12 по сезону 1009.8 1004.3 +12.5
00 13.07 ЮВ 2-5
{7}
2000 м дымка {ливн. осадки} 10/10 300 м
[Cb cap]
+13.1 +12.9 99 +12 +12 по сезону 1009.9 1004.4
03 13.07 ЮВ 5-6
{8}
2000 м слаб. ливневой дождь 10/10 200 м
[Cb cap]
+13.2 +13.2 100 +11 +11 по сезону 1009.5 1004.0
06 13.07 ЮВ 3-4
{7}
500 м слаб. ливневой дождь {туман} туман ?/? +13.6 +13.6 100 +12 +12 по сезону 1009.5 1004.0
09 13.07 ЮВ 4-5
{6}
500 м слаб. ливневой дождь {туман} туман ?/? +13.2 +13.2 100 +11 +11 по сезону 1009.4 1003.9 +14.0 3
12 13.07 ЮВ 6-8
{8}
500 м слаб. ливневой дождь {туман} туман ?/? +13.5 +13.5 100 +11 +11 по сезону 1010.1 1004.6
15 13.07 ЮВ 4-6
{8}
500 м слаб. ливневой дождь {туман} туман ?/? +13.2 +13.2 100 +11 +11 по сезону 1010.4 1004.9
18 13.07 ЮВ 3-5
{6}
200 м в посл. час ливневой дождь {туман} ?/? +13.4 +13.4 100 +12 +12 тепло 1010.5 1005.0
21 13.07 СВ 3-4
{6}
200 м туман ?/? +12.6 +12.6 100 +11 +11 по сезону 1011.2 1005.6 +12.5 3
00 14.07 СВ 3-5
{6}
500 м туман ?/? +12.9 +12.9 100 +11 +11 по сезону 1011.5 1006.0 +12.4
03 14.07 СВ 3-6
{5}
500 м туман ?/? +13.6 +13.6 100 +12 +12 по сезону 1011.7 1006.2
06 14.07 СВ 4-5
{6}
500 м туман ?/? +13.5 +13.3 99 +12 +12 по сезону 1012.1 1006.6
09 14.07 В 5-7
{8}
500 м туман ?/? +12.5 +12.5 100 +10 +10 по сезону 1012.4 1006.9 +14.1
12 14.07 В 6-10
{10}
500 м слаб. дождь {туман} туман ?/? +12.2 +12.2 100 +9 +9 по сезону 1013.2 1007.7
15 14.07 СВ 4-6
{10}
200 м туман {дождь} ?/? +11.6 +11.6 100 +9 +9 по сезону 1013.7 1008.1
18 14.07 СВ 4-7
{7}
200 м туман {дождь} ?/? +11.1 +11.1 100 +9 +9 по сезону 1014.0 1008.4
21 14.07 В 6-9
{10}
200 м туман ?/? +11.0 +11.0 100 +8 +8 прохладно 1015.1 1009.5 +10.7 0.5
00 15.07 В 5-9
{10}
500 м слаб. ливневой дождь {туман} туман ?/? +11.3 +11.3 100 +8 +8 прохладно 1015.5 1009.9
03 15.07 В 5-8
{10}
500 м слаб. ливневой дождь {туман} туман ?/? +11.3 +11.2 99 +8 +8 прохладно 1016.1 1010.5
06 15.07 В 4-6
{8}
500 м туман {ливн. осадки} ?/? +10.7 +10.7 100 +8 +8 прохладно 1016.4 1010.8
09 15.07 В 3-5
{6}
500 м туман ?/? +10.3 +10.3 100 +8 +8 прохладно 1017.1 1011.5 +11.5 0.0
12 15.07 В 4-6
{7}
500 м туман ?/? +11.1 +11.1 100 +9 +9 по сезону 1017.9 1012.3
15 15.07 В 0 500 м туман ?/? +11.3 +11.3 100 +11 +11 по сезону 1018.4 1012.5
18 15.07 В 0 500 м туман ?/? +11.5 +11.5 100 +11 +11 по сезону 1018.5 1012.6
21 15.07 В 0 500 м туман ?/? +11.6 +11.6 100 +11 +11 по сезону 1019.2 1013.3 +10.3
00 16.07 В 0
{8}
500 м туман 6/0
[]
+12.0 +12.0 100 +11 +25 опасность
простуды
1019.3 1013.4
03 16.07 В 0
{9}
500 м слаб. морось {туман} туман 10/10 200 м
[St]
+11.6 +10.9 95 +11 +11 по сезону 1019.3 1013.4
06 16.07 В 0
{6}
500 м слаб. морось {туман} туман 6/0
[]
+12.0 +12.0 100 +11 +20 по сезону 1019.0 1013.1
09 16.07 В 0
{5}
500 м туман ?/? +12.2 +12.2 100 +11 +11 по сезону 1018.9 1013.0 +12.3 0.0
12 16.07 В 0
{1}
500 м туман ?/? +12.7 +12.7 100 +12 +12 по сезону 1019.4 1013.5
15 16.07 В 0
{1}
200 м туман ?/? +12.3 +12.3 100 +12 +12 по сезону 1019.3 1013.4
18 16.07 В 0
{2}
200 м туман ?/? +12.5 +12.5 100 +12 +12 по сезону 1018.8 1012.9
21 16.07 В 0
{1}
200 м туман ?/? +13.6 +13.6 100 +13 +13 тепло 1018.7 1012.8 +12.3
00 17.07 Ю 0
{3}
200 м слаб. морось {туман} туман ?/? +14.1 +14.1 100 +14 +14 тепло 1018.4 1012.6 +12.2
03 17.07 Ю 0
{3}
200 м туман ?/? +14.3 +14.3 100 +14 +14 тепло 1017.7 1011.9
06 17.07 Ю 0
{5}
200 м слаб. морось {туман} туман ?/? +14.3 +14.3 100 +14 +14 по сезону 1017.7 1011.9

 

Местоположение метеостанции Южно-Курильск (Сахалинская область, Россия): широта 44.02 долгота 145.80 высота над уровнем моря 49 м.

В архиве по умолчанию представлена погода в Южно-Курильске за последнюю неделю. Архивные данные за месяц целиком и за предыдущие месяцы, начиная с января 2011 года, Вы можете получить, выбрав интересующий диапазон дат из раскрывающегося списка и нажав кнопку "Ввод!".


*Определитесь, кто Вы:
робот инопланетянин человек

Внимание! Время в таблицах - всемирное. Для получения местного времени необходимо прибавить поправку, которая равна 11 ч.

Смотрите также архив погоды в соседних городах и на ближайших метеорологических станциях:

Погода в Немуро (Япония) (79 км)
Погода в Малокурильском (Сахалинская область, Россия) (82 км)
Погода в Абасири (Япония) (122 км)
Погода в Кусиро (Япония) (163 км)
Погода в Момбецу (Япония) (199 км)
Погода в Курильске (Сахалинская область, Россия) (209 км)
Погода в Омурайсу (Япония) (234 км)
Погода в Обихиро (Япония) (242 км)
Погода в Китами Сачи (Япония) (275 км)
Погода в Асахикаве (Япония) (277 км)

Пояснения к столбцам:

Ветер - указаны скорость ветра в м/с - средняя за 10 мин, порывы в срок и между сроками (в фигурных скобках) и направление, откуда дует ветер: С - северный, СВ - северо-восточный, В - восточный, ЮВ - юго-восточный, Ю - южный, ЮЗ - юго-западный, З - западный, СЗ - северо-западный.
Видимость - горизонтальная дальность видимости в метрах или километрах. При видимости от 1 до 10 км при отсутствии осадков обычно наблюдается дымка, при ухудшении видимости до 1 км и менее - туман. В сухую погоду видимость может ухудшаться дымом, пылью или мглою.
Явления - указаны атмосферные явления, наблюдавшиеся в срок или в последний час перед сроком; фигурными скобками обозначены явления, наблюдавшиеся между сроками (за 1-3 часа до срока); квадратными скобками обозначены град или гололедные отложения с указанием их диаметра в мм.
Облачность - указаны через наклонную черту общая и нижняя облачность в баллах и высота нижней границы облаков в метрах; квадратными скобками обозначены формы облаков: Ci - перистые, Cs - перисто-слоистые, Cc - перисто-кучевые, Ac - высококучевые, As - высокослоистые, Sc - слоисто-кучевые, Ns - слоисто-дождевые, Cu - кучевые, Cb - кучево-дождевые. Подробнее классификацию облаков см. в Атласе облаков (PDF).
T - Температура воздуха - температура, измеренная на высоте 2 м над землей.
Td - Температура точки росы - температура, при понижении до которой содержащийся в воздухе водяной пар достигнет насыщения.
f - Относительная влажность воздуха - влажноcть воздуха, измеренная на высоте 2 м над землей.
Te - Эффективная температура - температура, которую ощущает одетый по сезону человек в тени. Характеристика душности погоды. При расчете учитывается влияние влажности воздуха и скорости ветра на теплоощущения человека.
Tes - Эффективная температура на солнце - температура, которую ощущает человек, с поправкой на солнечный нагрев. Характеристика знойности погоды. Зависит от высоты солнца над горизонтом, облачности и скорости ветра. Ночью, в пасмурную погоду, а также при ветре 12 м/с и более поправка равна нулю.
P - Атмосферное давление - приведенное к уровню моря атмосферное давление.
Po - Атмосферное давление - измеренное на уровне метеостанции атмосферное давление.
Tmin - Минимальная температура - минимум температуры воздуха на высоте 2 м над землей.
Tmax - Максимальная температура - максимум температуры воздуха на высоте 2 м над землей.
R - Количество осадков - Количество выпавших осадков за период времени, мм. При наведении курсора мыши на число - период времени, за который выпало указанное количество осадков.
R24 - Количество осадков - Количество выпавших осадков за 24 часа, мм.
S - Снежный покров - Высота снежного покрова, см. При наведении курсора мыши на число - состояние снежного покрова и степень покрытия местности в баллах.